Regional Weather Roundup
Issued by NWS Midland/Odessa, TX

Home | Current Version | Previous Version | Text Only | Print | Product List | Glossary On
Versions: 1 2 3 4 5 6 7 8 9 10 11 12 13 14 15 16 17 18 19 20 21 22 23 24 25 26 27 28 29 30 31 32 33 34 35 36 37 38 39 40 41 42 43 44 45 46 47 48 49 50
000
ASUS44 KMAF 051110
RWRMAF
MIDLAND AREA WEATHER ROUNDUP
NATIONAL WEATHER SERVICE MIDLAND TX
600 AM CDT SAT SEP 05 2015

...IN SOUTHWEST TEXAS AND SOUTHEAST NEW MEXICO...

CITY           SKY/WX    TMP DP  RH WIND       PRES   REMARKS
ALPINE         CLEAR     69  58  66 SW3       30.13R
ANDREWS        FAIR      67  58  72 SE3       30.03R
ARTESIA        CLEAR     66  54  63 N5        30.03S
BIG SPRING     CLEAR     73  62  69 SE10      30.02S
CARLSBAD       CLEAR     71  52  50 S6        30.00R
DRYDEN           N/A     78  70  76 VRB5      29.95R
FORT STOCKTON  CLEAR     74  66  76 SE10      29.99R
GUAD PASS      CLEAR     70  51  51 NE14      30.15R
HOBBS            N/A     66  55  68 S6        30.06R
MARFA          CLEAR     59  54  82 N5        30.11S
MIDLAND AIRPK  CLEAR     76  62  62 S9        30.02R
MIDLAND INTL   CLEAR     75  62  64 SE9       30.01R
ODESSA         CLEAR     75  61  61 SE10      30.01R
PECOS          CLEAR     71  58  63 E8        29.96S
PRESIDIO       FAIR      80  58  46 MISG      29.95S
SEMINOLE       CLEAR     65  53  65 CALM      30.05R
SNYDER         CLEAR     73  61  67 S6        30.01S
WINK           CLEAR     75  60  59 SE9       29.98R
$$
...OTHER STATIONS IN TEXAS...

CITY           SKY/WX    TMP DP  RH WIND       PRES   REMARKS
ABILENE        CLEAR     76  68  76 S9        29.99R
AMARILLO       CLEAR     68  58  70 S7        30.05R
AUSTIN         MOCLDY    78  75  90 S7        29.98S
BROWNSVILLE    CLEAR     78  77  96 S5        29.92S
CORPUS CHRISTI PTCLDY    80  77  90 SE6       29.93S
DALLAS FTW     CLEAR     79  72  79 S7        29.97R
DEL RIO        CLEAR     80  73  79 E9        29.92R
EL PASO        PTCLDY    76  55  48 N6        30.02R
HOUSTON INT    PTCLDY    76  75  97 CALM      29.99R
LUBBOCK        PTCLDY    70  59  68 S6        30.03R
SAN ANGELO     CLEAR     77  69  76 S7        29.97S
SAN ANTONIO    MOCLDY    81  74  79 S7        29.98S
WACO           CLOUDY    79  74  84 S14       29.98R
WICHITA FALLS  NOT AVBL
$$
...OTHER LOCATIONS IN NEW MEXICO...

CITY           SKY/WX    TMP DP  RH WIND       PRES   REMARKS
ALAMAGORDO     MOCLDY    66  55  68 NE6       30.05S
ALBUQUERQUE    CLOUDY    64  59  83 N6        30.16R
CANNON AFB     CLEAR     66  53  62 S7        30.08R
CLOVIS         CLEAR     63  52  67 S7        30.09S
HOLLOMAN AFB   MOCLDY    69  56  63 NE8       30.02S
ROSWELL        PTCLDY    68  56  65 CALM      30.03R
RUIDOSO        MOCLDY    59  52  77 SW6       30.25R
SANTA FE       CLOUDY    57  54  89 NW3       30.20R
TRUTH OR CONSE PTCLDY    62  57  83 N3        30.09R
TUCUMCARI      CLEAR     60  53  77 CALM      30.04R
$$




USA.gov is the U.S. government's official web portal to all federal, state and local government web resources and services.